Weather History for Moab, UT

Change the Weather History Date:

Sunday, December 9, 2012

  Actual Average Record
Temperature  
Mean Temperature 28 °F 28 °F  
Max Temperature 39 °F 38 °F 68 °F (1929)
Min Temperature 16 °F 18 °F -10 °F (2013)
Degree Days  
Heating Degree Days 37 37  
Month to date heating degree days 230 320  
Since 1 July heating degree days 1274 1529  
Cooling Degree Days 0 0  
Month to date cooling degree days 0 0  
Year to date cooling degree days 1513 1289  
Moisture  
Dew Point 1 °F    
Average Humidity 33    
Maximum Humidity 53    
Minimum Humidity 13    
Precipitation  
Precipitation 0.00 in 0.01 in 0.20 in (1931)
Month to date precipitation 0.06 0.14  
Year to date precipitation 2.72 8.34  
Sea Level Pressure  
Sea Level Pressure 30.16 in    
Wind  
Wind Speed 9 mph (NNE)    
Max Wind Speed 24 mph    
Max Gust Speed 29 mph    
Visibility 10 miles    
Events      
T = Trace of Precipitation, MM = Missing Value Source: NWS Daily Summary

Daily Weather History Graph

Daily Weather History Graph

Search for Another Location

Airport:

Trip Planner

Search our weather history database for the weather conditions in past years. The results will help you decide how hot, cold, wet, or windy it might be!

Date:

Astronomy

Dec. 09, 2012 Rise Set
Actual Time 7:25 AM MST 4:57 PM MST
Civil Twilight 6:56 AM MST 5:27 PM MST
Nautical Twilight 6:22 AM MST 6:00 PM MST
Astronomical Twilight 5:50 AM MST 6:32 PM MST
Moon 3:04 AM MST (12/9) 2:04 PM MST (12/9)
Length of Visible Light 10h 30m
Length of Day
9h 31m
Waning Crescent, 18% of the Moon is Illuminated
Dec 9
Waning Crescent
Dec 13
New
Dec 19
First Quarter
Dec 28
Full
Jan 4
Last Quarter

Hourly Weather History & Observations

Time (MST) Temp. Windchill Dew Point Humidity Pressure Visibility Wind Dir Wind Speed Gust Speed Precip Events Conditions
12:53 AM 36.0 °F - 16.0 °F 44% 29.91 in 10.0 mi Calm Calm - N/A   Overcast
1:53 AM 35.1 °F 26.4 °F 15.1 °F 44% 29.92 in 10.0 mi East 12.7 mph - N/A   Overcast
2:53 AM 34.0 °F 24.6 °F 12.0 °F 40% 29.94 in 10.0 mi East 13.8 mph 23.0 mph N/A   Overcast
3:53 AM 33.1 °F 25.5 °F 12.0 °F 42% 29.96 in 10.0 mi East 9.2 mph - N/A   Overcast
4:53 AM 32.0 °F 22.5 °F 12.9 °F 45% 30.01 in 10.0 mi East 12.7 mph - N/A   Overcast
5:53 AM 30.9 °F 22.8 °F 16.0 °F 54% 30.05 in 10.0 mi ENE 9.2 mph - N/A   Overcast
6:53 AM 28.9 °F 16.1 °F 9.0 °F 43% 30.09 in 10.0 mi ENE 19.6 mph - N/A   Overcast
7:53 AM 28.0 °F 15.3 °F 5.0 °F 38% 30.12 in 10.0 mi NE 18.4 mph - N/A   Overcast
8:53 AM 30.0 °F 19.1 °F 3.9 °F 33% 30.14 in 10.0 mi NE 15.0 mph - N/A   Partly Cloudy
9:53 AM 32.0 °F 21.2 °F 1.0 °F 27% 30.15 in 10.0 mi NE 16.1 mph - N/A   Clear
10:53 AM 34.0 °F 24.6 °F -2.0 °F 22% 30.17 in 10.0 mi NE 13.8 mph - N/A   Clear
11:53 AM 35.1 °F 28.6 °F -2.9 °F 20% 30.16 in 10.0 mi NNE 8.1 mph - N/A   Scattered Clouds
12:53 PM 35.1 °F 28.6 °F -11.0 °F 14% 30.16 in 10.0 mi WNW 8.1 mph - N/A   Mostly Cloudy
1:53 PM 35.1 °F 27.9 °F -11.0 °F 14% 30.17 in 10.0 mi NNW 9.2 mph - N/A   Scattered Clouds
2:53 PM 36.0 °F 29.6 °F -9.9 °F 14% 30.19 in 10.0 mi NW 8.1 mph - N/A   Clear
3:53 PM 35.1 °F 26.9 °F -9.9 °F 14% 30.21 in 10.0 mi NE 11.5 mph - N/A   Scattered Clouds
4:53 PM 30.9 °F 22.2 °F -8.0 °F 18% 30.24 in 10.0 mi NE 10.4 mph - N/A   Clear
5:53 PM 28.9 °F - -8.0 °F 20% 30.27 in 10.0 mi Calm Calm - N/A   Clear
6:53 PM 25.0 °F 20.7 °F -8.0 °F 23% 30.32 in 10.0 mi WSW 3.5 mph - N/A   Clear
7:53 PM 23.0 °F 14.7 °F -8.0 °F 25% 30.33 in 10.0 mi West 6.9 mph - N/A   Clear
8:53 PM 26.1 °F - -7.1 °F 23% 30.32 in 10.0 mi Calm Calm - N/A   Clear
9:53 PM 21.0 °F 14.6 °F -4.0 °F 33% 30.33 in 10.0 mi West 4.6 mph - N/A   Clear
10:53 PM 23.0 °F 13.1 °F 1.9 °F 40% 30.32 in 10.0 mi West 9.2 mph - N/A   Clear
11:53 PM 19.0 °F - 1.0 °F 46% 30.34 in 10.0 mi Calm Calm - N/A   Clear